Simultaneous Nadir Overpasses (SNOs) Predictions

Prediction of SNOs between LANDSAT-8 and NOAA-19 Satellite Orbit:

Table of predicted SNOs for the next 14.0 days since TLE Epoch: 2/14/2014
Index Date (LANDSAT-8) Time (LANDSAT-8) Lat,Lon (LANDSAT-8) SZA (LANDSAT-8 ) Date (NOAA-19) Time (NOAA-19) Lat,Lon (NOAA-19) SZA (NOAA-19 ) Distance(km) Time Diff (sec)
1 02/16/2014 05:13:44 71.60, 100.32 83.92 02/16/2014 05:13:11 71.57, 100.29 83.90 2.85 33
2 02/16/2014 06:03:14 -71.47, -92.26 96.22 02/16/2014 06:04:07 -71.46, -92.24 96.24 1.52 53
3 02/18/2014 09:58:04 71.60, 29.24 83.15 02/18/2014 09:57:13 71.58, 29.29 83.14 2.94 51
4 02/18/2014 10:47:34 -71.48,-163.33 96.98 02/18/2014 10:48:10 -71.49,-163.29 96.98 1.67 36
5 02/20/2014 14:42:25 71.66, -41.76 82.43 02/20/2014 14:41:16 71.65, -41.83 82.43 2.68 69
6 02/20/2014 15:31:55 -71.55, 125.68 97.71 02/20/2014 15:32:13 -71.53, 125.65 97.72 2.05 18
7 02/22/2014 19:26:38 72.26,-111.83 82.20 02/22/2014 19:25:30 72.30,-114.07 82.30 75.67 68
8 02/22/2014 20:16:19 -71.56, 54.58 98.50 02/22/2014 20:16:16 -71.58, 54.57 98.47 2.72 3
9 02/22/2014 21:05:58 70.82,-138.95 80.79 02/22/2014 21:07:05 70.81,-136.83 80.72 77.48 67
10 02/25/2014 01:00:44 -71.62, -16.43 99.25 02/25/2014 01:00:18 -71.59, -16.43 99.27 3.24 26
11 02/25/2014 01:50:12 71.48, 150.98 80.61 02/25/2014 01:51:19 71.47, 151.02 80.60 1.45 67
12 02/27/2014 05:45:12 -71.63, -87.54 100.06 02/27/2014 05:44:21 -71.66, -87.55 100.02 3.69 51
13 02/27/2014 06:34:39 71.54,
